Flag for Guadeloupe Weather past 2 weeks in Pointe-à-Pitre, Guadeloupe

Now
70 °F

Clear.


Feels Like: 70 °F
Forecast: 73 / 83 °F
Wind: 2 mph from North

Location: Le Raizet - Guadeloupe

Current Time: Dec 21, 2014 at 6:06:40 AM

Latest Report: Dec 21, 2014 at 5:30 AM


Visibility: N/A

Pressure: 29.98 "Hg

Humidity: 100%

Dew point: 70 °F

Location of Pointe-à-PitreLocation

Historic Weather in Pointe-à-Pitre — Graph

°F

Pointe-à-Pitre temperature yesterday

Maximum temperature yesterday: 81 °F (at 10:00 AM)
Minimum temperature yesterday: 70 °F (at 2:30 AM)
Average temperature yesterday: 74 °F

Past Weeks' High & Low Weather Summary

 TemperatureHumidityPressure
High86 °F (Dec 7, 11:00 AM)100% (Dec 6, 5:00 AM)30.04 "Hg (Dec 6, 5:00 AM)
Low68 °F (Dec 13, 3:30 AM)20% (Dec 17, 4:00 PM)29.77 "Hg (Dec 6, 3:30 PM)
Average76 °F82%29.94 "Hg
* Reported Dec 6 5:00 AM — Dec 21 5:00 AM, Pointe-à-Pitre, Weather by CustomWeather, © 2014

Note: Actual official high and low records may vary slightly from our data, if they occured in-between our weather recording intervals... More about our weather records

Advertising

Pointe-à-Pitre weather history for previous 24 hours

 ConditionsComfort  
Time TempWeatherWind HumidityBarometerVisibility
5:00 AM
Dec 21
72 °FClear.2 mph94%29.98 "HgN/A
4:30 AM72 °FPassing clouds.1 mph94%29.98 "HgN/A
4:00 AM72 °FMild.No wind94%29.98 "HgN/A
3:30 AM72 °FClear.2 mph94%29.98 "HgN/A
3:00 AM72 °FClear.3 mph94%29.98 "HgN/A
2:30 AM72 °FClear.2 mph94%29.98 "HgN/A
2:00 AM73 °FClear.No wind94%29.98 "HgN/A
1:30 AM73 °FMostly cloudy.No wind94%29.98 "HgN/A
1:00 AM73 °FPartly cloudy.1 mph94%30.01 "HgN/A
12:30 AM73 °FClear.2 mph89%30.01 "HgN/A
12:00 AM75 °FOvercast.No wind89%30.01 "HgN/A
11:30 PM
Dec 20
75 °FClear.3 mph89%30.01 "HgN/A
11:00 PM75 °FClear.No wind89%30.01 "HgN/A
10:30 PM75 °FClear.2 mph89%30.01 "HgN/A
10:00 PM75 °FOvercast.3 mph89%30.01 "HgN/A
9:30 PM75 °FClear.2 mph89%30.01 "HgN/A
9:00 PM75 °FPassing clouds.2 mph89%30.01 "HgN/A
8:30 PM75 °FPartly cloudy.2 mph89%30.01 "HgN/A
8:00 PM75 °FClear.3 mph89%30.01 "HgN/A
7:30 PM75 °FClear.2 mph89%30.01 "HgN/A
7:00 PM75 °FPassing clouds.No wind89%29.98 "HgN/A
6:30 PM75 °FPassing clouds.2 mph89%29.98 "HgN/A
6:00 PM75 °FPassing clouds.3 mph89%29.98 "HgN/A
5:30 PM75 °FPartly sunny.5 mph89%29.98 "HgN/A
5:00 PM75 °FBroken clouds.5 mph89%29.95 "HgN/A
4:30 PM77 °FRain showers. Broken clouds.8 mph83%29.95 "HgN/A
4:00 PM77 °FRain showers. Partly sunny.9 mph83%29.95 "HgN/A
3:34 PM79 °FBroken clouds.5 mph84%29.95 "HgN/A
3:00 PM77 °FSprinkles. Partly sunny.7 mph83%29.95 "Hg2 mi
2:00 PM79 °FBroken clouds.3 mph79%29.98 "HgN/A
1:30 PM77 °FBroken clouds.8 mph83%29.98 "HgN/A
1:00 PM77 °FSprinkles. Partly sunny.7 mph83%29.98 "HgN/A
12:41 PM77 °FBroken clouds.3 mph89%30.01 "HgN/A
12:30 PM77 °FRain. Broken clouds.6 mph89%30.01 "HgN/A
12:00 PM75 °FSprinkles. Partly sunny.10 mph89%30.01 "Hg2 mi
11:30 AM77 °FSprinkles. Partly sunny.7 mph83%30.04 "Hg2 mi
11:00 AM77 °FSprinkles. Partly sunny.8 mph83%30.04 "Hg2 mi
10:30 AM79 °FPartly sunny.3 mph84%30.04 "HgN/A
10:00 AM81 °FPartly sunny.3 mph74%30.04 "HgN/A
9:30 AM79 °FPartly sunny.3 mph74%30.01 "HgN/A
9:00 AM75 °FPartly sunny.9 mph83%30.01 "HgN/A
8:38 AM75 °FBroken clouds.13 mph89%30.01 "HgN/A
8:00 AM73 °FBroken clouds.2 mph100%30.01 "HgN/A
7:30 AM72 °FScattered clouds.2 mph100%29.98 "HgN/A
7:00 AM72 °FMild.2 mph100%29.98 "HgN/A
6:30 AM72 °FBroken clouds.2 mph94%29.95 "HgN/A
6:00 AM72 °FLight rain. Partly cloudy.2 mph94%29.95 "HgN/A
Weather by CustomWeather, © 2014

See weather overviewHow to use our weather pages